Regional Weather Roundup
Issued by NWS

Home | Current Version | Previous Version | Graphics & Text | Print | Product List | Glossary On
Versions: 1 2 3 4 5 6 7 8 9 10 11 12 13 14 15 16 17 18 19 20 21 22 23 24 25 26 27 28 29 30 31 32 33 34 35 36 37 38 39 40 41 42 43 44 45 46 47 48 49 50
000
ASUS43 KLSX 270359
RWRMO

WEATHER SUMMARY FOR MISSOURI
NATIONAL WEATHER SERVICE SPRINGFIELD MO
1100 PM CDT TUE MAY 26 2015

NOTE: "FAIR" INDICATES FEW OR NO CLOUDS BELOW 12,000 FEET WITH NO
       SIGNIFICANT WEATHER AND/OR OBSTRUCTIONS TO VISIBILITY.
       CURRENT SKY AND/OR WEATHER CONDITIONS ARE NOT AVAILABLE FOR
       CHILLICOTHE AND FARMINGTON.

MOZ001>031-035>038-043-044-053-054-270500-
...NORTHERN AND WESTERN MISSOURI...

CITY           SKY/WX    TMP DP  RH WIND       PRES   REMARKS
KANSAS CTY INT PTCLDY    67  60  78 W6        29.94R
KANSAS C DTWN  PTCLDY    69  59  70 SW6       29.93R
LEE`S SUMMIT   CLOUDY    69  61  75 SW7       29.95R
ST JOSEPH      CLEAR     64  59  83 CALM      29.94R
KIRKSVILLE     PTCLDY    64  61  90 W3        29.93R

$$
MOZ066>068-077>081-088>096-101>105-270500-
...SOUTHWEST MISSOURI...

CITY           SKY/WX    TMP DP  RH WIND       PRES   REMARKS
SPRINGFIELD    MOCLDY    68  61  78 SE3       30.01R
JOPLIN         PTCLDY    65  63  93 E3        29.98F

$$
MOZ032>034-039>042-045>050-055>058-069>072-270500-
...CENTRAL MISSOURI...

CITY           SKY/WX    TMP DP  RH WIND       PRES   REMARKS
COLUMBIA       PTCLDY    66  61  84 S8        29.96R
JEFFERSON CITY CLEAR     71  60  68 S6        29.96R
ROLLA          CLEAR     68  61  78 S10       29.99R
SEDALIA        CLOUDY    69  61  75 SW9       29.98R
OSAGE BEACH    MOCLDY    70  61  73 S6        29.99R

$$
MOZ051-052-059>065-270500-
...EAST CENTRAL MISSOURI...

CITY           SKY/WX    TMP DP  RH WIND       PRES   REMARKS
ST LOUIS INTL  PTCLDY    73  60  63 S12       29.98R
SPIRIT OF STL  CLEAR    N/A N/A N/A S9        29.97R
ST CHARLES     CLEAR     71  61  70 SW10      29.96R

$$
MOZ072>076-082>087-097>100-106>115-270500-
...SOUTH CENTRAL AND SOUTHEAST MISSOURI...

CITY           SKY/WX    TMP DP  RH WIND       PRES   REMARKS
CAPE GIRARDEAU CLEAR     69  64  84 S7        30.05S
FARMINGTON     CLEAR     66  61  82 SW9       30.08R
POPLAR BLUFF   CLEAR     69  63  81 S7        30.05R
WEST PLAINS    CLEAR     68  62  81 S7        30.05S

$$



USA.gov is the U.S. government's official web portal to all federal, state and local government web resources and services.